Date String (YYYY-MM-DD hh:mm:ss) UTC,Instrument flags,Ambient pressure (hPa),Sample flow (lpm),Bypass flow (lpm),Sample temperature (°C),Ambient temperature (°C),ASC tube jacket temperature (°C),LED temperature (°C),Box temperature (°C),Sample RH (%),Span deviation,Mass concentration (μg/m³),Mass concentration (μg/m³),Mass concentration (μg/m³)
DateTimeUTC,F1_M11,P_M11,Q1_M11,Q2_M11,T1_M11,T2_M11,T3_M11,T4_M11,T5_M11,U1_M11,ZSPAN_M11,X0_M11,X2_M11,X1_M11
2023-05-19 00:00:00,,0832.9,5.01,0.00,29.6,28.1,00.0,38.0,31.2,26.9,0001.1,0009.46,0005.22,0004.19
2023-05-19 00:01:00,,0833.0,4.99,0.00,29.6,28.1,00.0,38.0,31.2,27.0,0002.1,0009.45,0005.29,0004.30
2023-05-19 00:02:00,,0832.9,5.00,0.00,29.7,28.1,00.0,38.0,31.2,27.0,0002.2,0009.39,0005.37,0004.42
2023-05-19 00:03:00,,0832.9,5.01,0.00,29.6,28.1,00.0,38.0,31.2,26.8,0002.7,0009.53,0005.55,0004.61
2023-05-19 00:04:00,,0833.0,5.00,0.00,29.7,28.1,00.0,38.0,31.2,26.6,0003.2,0009.63,0005.73,0004.84
2023-05-19 00:05:00,,0833.2,4.99,0.00,29.7,28.1,00.0,38.0,31.2,26.7,0002.6,0009.78,0005.93,0005.08
2023-05-19 00:06:00,,0833.1,5.01,0.00,29.7,28.1,00.0,38.0,31.2,26.8,0002.5,0009.94,0006.12,0005.28
2023-05-19 00:07:00,,0833.1,4.98,0.00,29.6,28.1,00.0,38.0,31.2,26.8,0002.6,0010.14,0006.36,0005.55
2023-05-19 00:08:00,,0833.0,5.00,0.00,29.7,28.1,00.0,38.0,31.2,26.8,0002.5,0010.50,0006.67,0005.85
2023-05-19 00:09:00,,0833.1,5.00,0.00,29.7,28.1,00.0,38.0,31.2,26.8,0002.1,0010.86,0007.00,0006.17
2023-05-19 00:10:00,,0833.0,5.01,0.00,29.7,28.1,00.0,38.1,31.2,26.7,0002.2,0011.22,0007.29,0006.45
2023-05-19 00:11:00,,0833.2,4.99,0.00,29.7,28.1,00.0,38.0,31.2,26.7,0002.7,0011.43,0007.52,0006.74
2023-05-19 00:12:00,,0833.1,5.00,0.00,29.7,28.1,00.0,38.0,31.2,26.7,0002.8,0011.74,0007.82,0007.02
2023-05-19 00:13:00,,0833.2,5.01,0.00,29.7,28.1,00.0,38.0,31.2,26.8,0003.0,0012.10,0008.07,0007.24
2023-05-19 00:14:00,,0833.1,4.99,0.00,29.7,28.1,00.0,38.0,31.2,26.9,0003.1,0012.45,0008.28,0007.43
2023-05-19 00:15:00,,0833.1,5.01,0.00,29.7,28.1,00.0,38.0,31.2,26.9,0003.2,0012.84,0008.50,0007.55
2023-05-19 00:16:00,,0833.1,5.01,0.00,29.7,28.1,00.0,38.0,31.2,26.8,0003.5,0013.06,0008.64,0007.67
2023-05-19 00:17:00,,0833.1,4.99,0.00,29.7,28.1,00.0,38.1,31.2,26.8,0003.5,0013.28,0008.79,0007.77
2023-05-19 00:18:00,,0833.2,4.99,0.00,29.7,28.1,00.0,38.1,31.2,26.9,0003.3,0013.46,0008.89,0007.84
2023-05-19 00:19:00,,0833.2,5.01,0.00,29.7,28.1,00.0,38.1,31.2,27.0,0003.0,0013.63,0008.97,0007.90
2023-05-19 00:20:00,,0833.2,5.00,0.00,29.6,28.1,00.0,38.1,31.2,27.0,0003.5,0013.67,0009.02,0007.95
2023-05-19 00:21:00,,0833.2,5.01,0.00,29.6,28.1,00.0,38.0,31.2,27.0,0003.6,0013.79,0009.08,0008.02
2023-05-19 00:22:00,,0833.2,4.99,0.00,29.6,28.1,00.0,38.1,31.2,27.0,0003.8,0013.86,0009.12,0008.04
2023-05-19 00:23:00,,0833.2,5.01,0.00,29.6,28.1,00.0,38.0,31.2,27.1,0003.7,0014.01,0009.16,0008.06
2023-05-19 00:24:00,,0833.2,5.01,0.00,29.6,28.1,00.0,38.0,31.2,27.1,0003.5,0014.09,0009.19,0008.10
2023-05-19 00:25:00,,0833.2,4.99,0.00,29.6,28.1,00.0,38.0,31.2,27.2,0003.5,0014.06,0009.21,0008.15
2023-05-19 00:26:00,,0833.3,5.01,0.00,29.6,28.1,00.0,38.0,31.2,27.3,0003.2,0013.91,0009.20,0008.20
2023-05-19 00:27:00,,0833.3,5.00,0.00,29.7,28.1,00.0,38.0,31.2,27.4,0003.2,0013.85,0009.22,0008.26
2023-05-19 00:28:00,,0833.2,5.01,0.00,29.7,28.1,00.0,38.0,31.2,27.4,0003.4,0013.89,0009.26,0008.35
2023-05-19 00:29:00,,0833.3,5.00,0.00,29.7,28.1,00.0,38.0,31.2,27.4,0003.4,0014.09,0009.40,0008.47
2023-05-19 00:30:00,,0833.3,5.00,0.00,29.7,28.1,00.0,38.0,31.2,27.5,0003.8,0014.18,0009.51,0008.57
2023-05-19 00:31:00,,0833.3,4.99,0.00,29.7,28.1,00.0,38.0,31.2,27.5,0003.5,0014.36,0009.61,0008.63
2023-05-19 00:32:00,,0833.3,5.01,0.00,29.7,28.1,00.0,38.0,31.2,27.5,0003.1,0014.37,0009.64,0008.65
2023-05-19 00:33:00,,0833.2,5.00,0.00,29.7,28.1,00.0,38.0,31.2,27.5,0003.4,0014.46,0009.68,0008.66
2023-05-19 00:34:00,,0833.3,5.00,0.00,29.7,28.1,00.0,38.0,31.2,27.4,0003.5,0014.60,0009.71,0008.65
2023-05-19 00:35:00,,0833.2,5.00,0.00,29.6,28.1,00.0,38.0,31.2,27.4,0003.1,0014.59,0009.71,0008.65
2023-05-19 00:36:00,,0833.3,4.99,0.00,29.6,28.1,00.0,38.0,31.2,27.4,0002.8,0014.59,0009.71,0008.62
2023-05-19 00:37:00,,0833.2,4.99,0.00,29.6,28.1,00.0,38.0,31.2,27.3,0003.0,0014.58,0009.69,0008.60
2023-05-19 00:38:00,,0833.2,5.00,0.00,29.6,28.1,00.0,38.0,31.2,27.3,0002.5,0014.73,0009.69,0008.58
2023-05-19 00:39:00,,0833.3,5.01,0.00,29.7,28.1,00.0,38.0,31.2,27.2,0002.4,0014.77,0009.70,0008.55
2023-05-19 00:40:00,,0833.3,5.00,0.00,29.7,28.1,00.0,38.0,31.2,27.3,0002.2,0014.72,0009.67,0008.53
2023-05-19 00:41:00,,0833.3,5.00,0.00,29.7,28.1,00.0,38.0,31.2,27.3,0002.3,0014.67,0009.64,0008.53
2023-05-19 00:42:00,,0833.3,5.00,0.00,29.7,28.1,00.0,38.0,31.2,27.3,0002.9,0014.60,0009.62,0008.54
2023-05-19 00:43:00,,0833.3,4.99,0.00,29.7,28.1,00.0,38.0,31.2,27.3,0003.1,0014.50,0009.60,0008.56
2023-05-19 00:44:00,,0833.4,5.00,0.00,29.7,28.1,00.0,38.0,31.2,27.3,0002.7,0014.82,0009.64,0008.59
2023-05-19 00:45:00,,0833.3,5.01,0.00,29.7,28.1,00.0,38.0,31.2,27.2,0002.6,0015.39,0009.70,0008.66
2023-05-19 00:46:00,,0833.4,5.00,0.00,29.7,28.1,00.0,38.0,31.2,27.2,0002.9,0015.48,0009.72,0008.71
2023-05-19 00:47:00,,0833.4,5.00,0.00,29.7,28.1,00.0,38.0,31.2,27.3,0003.5,0015.49,0009.76,0008.75
2023-05-19 00:48:00,,0833.4,4.99,0.00,29.7,28.1,00.0,38.0,31.2,27.4,0003.1,0015.58,0009.82,0008.80
2023-05-19 00:49:00,,0833.4,5.01,0.00,29.7,28.1,00.0,38.0,31.2,27.4,0003.3,0015.64,0009.86,0008.85
2023-05-19 00:50:00,,0833.4,5.00,0.00,29.7,28.1,00.0,38.0,31.2,27.4,0003.4,0015.64,0009.91,0008.88
2023-05-19 00:51:00,,0833.5,5.01,0.00,29.7,28.1,00.0,38.0,31.2,27.4,0003.4,0015.64,0009.91,0008.90
2023-05-19 00:52:00,,0833.6,4.99,0.00,29.7,28.1,00.0,38.0,31.2,27.5,0003.2,0015.66,0009.91,0008.89
2023-05-19 00:53:00,,0833.6,5.00,0.00,29.7,28.1,00.0,38.0,31.2,27.6,0003.1,0015.69,0009.89,0008.86
2023-05-19 00:54:00,,0833.6,5.00,0.00,29.7,28.1,00.0,38.0,31.2,27.6,0003.2,0015.94,0009.91,0008.86
2023-05-19 00:55:00,,0833.7,5.01,0.00,29.7,28.1,00.0,38.0,31.2,27.6,0003.3,0016.25,0009.89,0008.86
2023-05-19 00:56:00,,0833.7,5.01,0.00,29.7,28.1,00.0,38.0,31.2,27.5,0003.0,0015.42,0009.80,0008.82
2023-05-19 00:57:00,,0833.7,4.99,0.00,29.7,28.1,00.0,38.0,31.2,27.5,0002.8,0015.11,0009.75,0008.77
2023-05-19 00:58:00,,0833.7,4.99,0.00,29.7,28.1,00.0,38.0,31.3,27.5,0002.5,0015.14,0009.76,0008.79
2023-05-19 00:59:00,,0833.7,4.99,0.00,29.7,28.1,00.0,38.0,31.3,27.4,0002.4,0015.15,0009.73,0008.78
